Time,TemperatureF,DewpointF,PressureIn,WindDirection,WindDirectionDegrees,WindSpeedMPH,WindSpeedGustMPH,Humidity,HourlyPrecipIn,Conditions,Clouds,dailyrainin,SoftwareType,DateUTC
2013-04-27 00:01:00,51.6,43.3,30.14,SW,225,0.0,0.0,73,0.00,,,0.00,WUHU21623XXSP,2013-04-27 07:01:00,
2013-04-27 00:06:00,51.6,43.6,30.14,SW,225,0.0,0.0,74,0.00,,,0.00,WUHU21623XXSP,2013-04-27 07:06:00,
2013-04-27 00:11:00,51.4,43.4,30.14,SW,225,0.0,0.0,74,0.00,,,0.00,WUHU21623XXSP,2013-04-27 07:11:00,
2013-04-27 00:16:00,51.4,43.4,30.14,SW,225,0.0,0.0,74,0.00,,,0.00,WUHU21623XXSP,2013-04-27 07:16:00,
2013-04-27 00:21:00,51.4,43.4,30.14,SW,225,0.0,0.0,74,0.00,,,0.00,WUHU21623XXSP,2013-04-27 07:21:00,
2013-04-27 00:26:00,51.4,43.4,30.14,SW,225,0.0,0.0,74,0.00,,,0.00,WUHU21623XXSP,2013-04-27 07:26:00,
2013-04-27 00:31:00,51.3,43.3,30.14,SW,225,0.0,0.0,74,0.00,,,0.00,WUHU21623XXSP,2013-04-27 07:31:00,
2013-04-27 00:36:00,51.3,43.3,30.15,SW,225,0.0,0.0,74,0.00,,,0.00,WUHU21623XXSP,2013-04-27 07:36:00,
2013-04-27 00:41:00,51.3,43.3,30.15,SW,225,0.0,0.0,74,0.00,,,0.00,WUHU21623XXSP,2013-04-27 07:41:00,
2013-04-27 00:46:00,51.3,43.4,30.15,SW,225,0.0,0.0,75,0.00,,,0.00,WUHU21623XXSP,2013-04-27 07:46:00,
2013-04-27 00:51:00,51.1,43.4,30.15,SW,225,0.0,0.0,75,0.00,,,0.00,WUHU21623XXSP,2013-04-27 07:51:00,
2013-04-27 00:56:00,51.1,43.4,30.15,SW,225,0.0,0.0,75,0.00,,,0.00,WUHU21623XXSP,2013-04-27 07:56:00,
2013-04-27 01:01:00,51.1,43.4,30.15,SW,225,0.0,0.0,75,0.00,,,0.00,WUHU21623XXSP,2013-04-27 08:01:00,
2013-04-27 01:06:00,50.9,43.6,30.15,SW,225,0.0,0.0,76,0.00,,,0.00,WUHU21623XXSP,2013-04-27 08:06:00,
2013-04-27 01:11:00,50.9,43.6,30.15,SW,225,0.0,0.0,76,0.00,,,0.00,WUHU21623XXSP,2013-04-27 08:11:00,
2013-04-27 01:16:00,50.7,43.4,30.15,SW,225,0.0,0.0,76,0.00,,,0.00,WUHU21623XXSP,2013-04-27 08:16:00,
2013-04-27 01:21:00,50.7,43.8,30.15,SW,225,0.0,0.0,77,0.00,,,0.00,WUHU21623XXSP,2013-04-27 08:21:00,
2013-04-27 01:26:00,50.5,43.6,30.15,SW,225,0.0,0.0,77,0.00,,,0.00,WUHU21623XXSP,2013-04-27 08:26:00,
2013-04-27 01:31:00,50.5,43.6,30.15,SW,225,0.0,0.0,77,0.00,,,0.00,WUHU21623XXSP,2013-04-27 08:31:00,
2013-04-27 01:36:00,50.4,43.6,30.15,SW,225,0.0,0.0,77,0.00,,,0.00,WUHU21623XXSP,2013-04-27 08:36:00,
2013-04-27 01:41:00,50.4,43.4,30.16,SW,225,0.0,0.0,77,0.00,,,0.00,WUHU21623XXSP,2013-04-27 08:41:00,
2013-04-27 01:46:00,50.4,43.4,30.15,SW,225,0.0,0.0,77,0.00,,,0.00,WUHU21623XXSP,2013-04-27 08:46:00,
2013-04-27 01:51:00,50.2,43.6,30.15,SW,225,0.0,0.0,78,0.00,,,0.00,WUHU21623XXSP,2013-04-27 08:51:00,
2013-04-27 01:56:00,50.2,43.6,30.15,SW,225,0.0,0.0,78,0.00,,,0.00,WUHU21623XXSP,2013-04-27 08:56:00,
2013-04-27 02:01:00,50.2,43.6,30.16,SW,225,0.0,0.0,78,0.00,,,0.00,WUHU21623XXSP,2013-04-27 09:01:00,
2013-04-27 02:06:00,50.2,43.6,30.15,SW,225,0.0,0.0,78,0.00,,,0.00,WUHU21623XXSP,2013-04-27 09:06:00,
2013-04-27 02:11:00,50.2,43.6,30.15,SW,225,0.0,0.0,78,0.00,,,0.00,WUHU21623XXSP,2013-04-27 09:11:00,
2013-04-27 02:16:00,50.0,43.4,30.15,SW,225,0.0,0.0,78,0.00,,,0.00,WUHU21623XXSP,2013-04-27 09:16:00,
2013-04-27 02:21:00,49.8,43.2,30.15,SW,225,0.0,0.0,78,0.00,,,0.00,WUHU21623XXSP,2013-04-27 09:21:00,
2013-04-27 02:26:00,49.8,43.2,30.15,SW,225,0.0,0.0,78,0.00,,,0.00,WUHU21623XXSP,2013-04-27 09:26:00,
2013-04-27 02:31:00,49.8,43.2,30.15,SW,225,0.0,0.0,78,0.00,,,0.00,WUHU21623XXSP,2013-04-27 09:31:00,
2013-04-27 02:36:00,49.8,43.2,30.14,WSW,247,0.0,0.0,78,0.00,,,0.00,WUHU21623XXSP,2013-04-27 09:36:00,
2013-04-27 02:41:00,49.8,43.2,30.14,WSW,247,0.0,0.0,78,0.00,,,0.00,WUHU21623XXSP,2013-04-27 09:41:00,
2013-04-27 02:46:00,49.8,43.2,30.14,WSW,247,0.0,0.0,78,0.00,,,0.00,WUHU21623XXSP,2013-04-27 09:46:00,
2013-04-27 02:51:00,49.8,43.5,30.14,WSW,247,0.0,0.0,79,0.00,,,0.00,WUHU21623XXSP,2013-04-27 09:51:00,
2013-04-27 02:56:00,49.6,43.4,30.14,WSW,247,0.0,0.0,79,0.00,,,0.00,WUHU21623XXSP,2013-04-27 09:56:00,
2013-04-27 03:01:00,49.6,43.4,30.13,SW,225,0.0,0.0,79,0.00,,,0.00,WUHU21623XXSP,2013-04-27 10:01:00,
2013-04-27 03:06:00,49.5,43.5,30.14,WSW,247,0.0,0.0,80,0.00,,,0.00,WUHU21623XXSP,2013-04-27 10:06:00,
2013-04-27 03:11:00,49.3,43.3,30.14,WSW,247,0.0,0.0,80,0.00,,,0.00,WUHU21623XXSP,2013-04-27 10:11:00,
2013-04-27 03:16:00,49.3,43.6,30.14,WSW,247,0.0,0.0,81,0.00,,,0.00,WUHU21623XXSP,2013-04-27 10:16:00,
2013-04-27 03:21:00,49.3,43.6,30.14,WSW,247,0.0,0.0,81,0.00,,,0.00,WUHU21623XXSP,2013-04-27 10:21:00,
2013-04-27 03:26:00,49.3,43.6,30.14,WSW,247,0.0,0.0,81,0.00,,,0.00,WUHU21623XXSP,2013-04-27 10:26:00,
2013-04-27 03:31:00,49.3,43.6,30.13,WSW,247,0.0,0.0,81,0.00,,,0.00,WUHU21623XXSP,2013-04-27 10:31:00,
2013-04-27 03:36:00,49.3,43.6,30.13,WSW,247,0.0,0.0,81,0.00,,,0.00,WUHU21623XXSP,2013-04-27 10:36:00,
2013-04-27 03:41:00,49.3,44.0,30.13,WSW,247,0.0,0.0,82,0.00,,,0.00,WUHU21623XXSP,2013-04-27 10:41:00,
2013-04-27 03:46:00,49.3,44.0,30.13,WSW,247,0.0,0.0,82,0.00,,,0.00,WUHU21623XXSP,2013-04-27 10:46:00,
2013-04-27 03:51:00,49.3,44.0,30.13,WSW,247,0.0,0.0,82,0.00,,,0.00,WUHU21623XXSP,2013-04-27 10:51:00,
2013-04-27 03:56:00,49.5,44.1,30.12,WSW,247,0.0,0.0,82,0.00,,,0.00,WUHU21623XXSP,2013-04-27 10:56:00,
2013-04-27 04:01:00,49.6,44.3,30.12,WSW,247,0.0,0.0,82,0.00,,,0.00,WUHU21623XXSP,2013-04-27 11:01:00,
2013-04-27 04:06:00,49.5,44.1,30.13,WSW,247,0.0,0.0,82,0.00,,,0.00,WUHU21623XXSP,2013-04-27 11:06:00,
2013-04-27 04:11:00,49.5,44.4,30.12,WSW,247,0.0,0.0,83,0.00,,,0.00,WUHU21623XXSP,2013-04-27 11:11:00,
2013-04-27 04:16:00,49.3,44.3,30.12,WSW,247,0.0,0.0,83,0.00,,,0.00,WUHU21623XXSP,2013-04-27 11:16:00,
2013-04-27 04:21:00,49.3,44.3,30.12,WSW,247,0.0,0.0,83,0.00,,,0.00,WUHU21623XXSP,2013-04-27 11:21:00,
2013-04-27 04:26:00,49.3,44.0,30.13,WSW,247,0.0,0.0,82,0.00,,,0.00,WUHU21623XXSP,2013-04-27 11:26:00,
2013-04-27 04:31:00,49.3,44.3,30.13,WSW,247,0.0,0.0,83,0.00,,,0.00,WUHU21623XXSP,2013-04-27 11:31:00,
2013-04-27 04:36:00,49.3,44.3,30.12,WSW,247,0.0,0.0,83,0.00,,,0.00,WUHU21623XXSP,2013-04-27 11:36:00,
2013-04-27 04:41:00,49.3,44.3,30.12,WSW,247,0.0,0.0,83,0.00,,,0.00,WUHU21623XXSP,2013-04-27 11:41:00,
2013-04-27 04:46:00,49.3,44.3,30.13,WSW,247,0.0,0.0,83,0.00,,,0.00,WUHU21623XXSP,2013-04-27 11:46:00,
2013-04-27 04:51:00,49.3,44.3,30.13,WSW,247,0.0,0.0,83,0.00,,,0.00,WUHU21623XXSP,2013-04-27 11:51:00,
2013-04-27 04:56:00,49.3,44.3,30.12,WSW,247,0.0,0.0,83,0.00,,,0.00,WUHU21623XXSP,2013-04-27 11:56:00,
2013-04-27 05:01:00,49.3,44.3,30.12,WSW,247,0.0,0.0,83,0.00,,,0.00,WUHU21623XXSP,2013-04-27 12:01:00,
2013-04-27 05:06:00,49.3,44.3,30.12,WSW,247,0.0,0.0,83,0.00,,,0.00,WUHU21623XXSP,2013-04-27 12:06:00,
2013-04-27 05:11:00,49.3,44.3,30.12,WSW,247,0.0,0.0,83,0.00,,,0.00,WUHU21623XXSP,2013-04-27 12:11:00,
2013-04-27 05:16:00,49.3,44.3,30.12,WSW,247,0.0,0.0,83,0.00,,,0.00,WUHU21623XXSP,2013-04-27 12:16:00,
2013-04-27 05:21:00,49.3,44.3,30.12,WSW,247,0.0,0.0,83,0.00,,,0.00,WUHU21623XXSP,2013-04-27 12:21:00,
2013-04-27 05:26:00,49.3,44.3,30.12,WSW,247,0.0,0.0,83,0.00,,,0.00,WUHU21623XXSP,2013-04-27 12:26:00,
2013-04-27 05:31:00,49.3,44.3,30.12,WSW,247,0.0,0.0,83,0.00,,,0.00,WUHU21623XXSP,2013-04-27 12:31:00,
2013-04-27 05:36:00,49.3,44.3,30.12,WSW,247,0.0,0.0,83,0.00,,,0.00,WUHU21623XXSP,2013-04-27 12:36:00,
2013-04-27 05:41:00,49.3,44.3,30.11,WSW,247,0.0,0.0,83,0.00,,,0.00,WUHU21623XXSP,2013-04-27 12:41:00,
2013-04-27 05:46:00,49.3,44.3,30.12,WSW,247,0.0,0.0,83,0.00,,,0.00,WUHU21623XXSP,2013-04-27 12:46:00,
2013-04-27 05:51:00,49.1,44.1,30.12,WSW,247,0.0,0.0,83,0.00,,,0.00,WUHU21623XXSP,2013-04-27 12:51:00,
2013-04-27 05:56:00,49.1,44.1,30.12,WSW,247,0.0,0.0,83,0.00,,,0.00,WUHU21623XXSP,2013-04-27 12:56:00,
2013-04-27 06:01:00,49.1,44.1,30.11,WSW,247,0.0,0.0,83,0.00,,,0.00,WUHU21623XXSP,2013-04-27 13:01:00,
2013-04-27 06:06:00,49.1,44.1,30.10,WSW,247,0.0,0.0,83,0.00,,,0.00,WUHU21623XXSP,2013-04-27 13:06:00,
2013-04-27 06:11:00,48.9,43.9,30.10,WSW,247,0.0,0.0,83,0.00,,,0.00,WUHU21623XXSP,2013-04-27 13:11:00,
2013-04-27 06:16:00,48.9,43.9,30.10,WSW,247,0.0,0.0,83,0.00,,,0.00,WUHU21623XXSP,2013-04-27 13:16:00,
2013-04-27 06:21:00,48.9,44.2,30.10,WSW,247,0.0,0.0,84,0.00,,,0.00,WUHU21623XXSP,2013-04-27 13:21:00,
2013-04-27 06:26:00,48.9,44.2,30.10,WSW,247,0.0,0.0,84,0.00,,,0.00,WUHU21623XXSP,2013-04-27 13:26:00,
2013-04-27 06:32:00,48.7,44.1,30.10,WSW,247,0.0,0.0,84,0.00,,,0.00,WUHU21623XXSP,2013-04-27 13:32:00,
2013-04-27 06:36:00,48.7,44.1,30.11,WSW,247,0.0,0.0,84,0.00,,,0.00,WUHU21623XXSP,2013-04-27 13:36:00,
2013-04-27 06:42:00,48.7,44.1,30.11,WSW,247,0.0,0.0,84,0.00,,,0.00,WUHU21623XXSP,2013-04-27 13:42:00,
2013-04-27 06:48:00,48.7,44.1,30.11,WSW,247,0.0,0.0,84,0.00,,,0.00,WUHU21623XXSP,2013-04-27 13:48:00,
2013-04-27 06:53:00,48.7,44.1,30.12,WSW,247,0.0,0.0,84,0.00,,,0.00,WUHU21623XXSP,2013-04-27 13:53:00,
2013-04-27 06:58:00,48.7,44.1,30.12,SSW,202,0.0,0.0,84,0.00,,,0.00,WUHU21623XXSP,2013-04-27 13:58:00,
2013-04-27 07:03:00,48.9,43.9,30.12,SSW,202,0.0,0.0,83,0.00,,,0.00,WUHU21623XXSP,2013-04-27 14:03:00,
2013-04-27 07:08:00,48.9,43.9,30.12,SSW,202,0.0,0.0,83,0.00,,,0.00,WUHU21623XXSP,2013-04-27 14:08:00,
2013-04-27 07:13:00,49.1,44.1,30.12,SSW,202,0.0,0.0,83,0.00,,,0.00,WUHU21623XXSP,2013-04-27 14:13:00,
2013-04-27 07:18:00,49.3,44.3,30.12,SSW,202,0.0,0.0,83,0.00,,,0.00,WUHU21623XXSP,2013-04-27 14:18:00,
2013-04-27 07:23:00,49.3,44.0,30.11,SSW,202,0.0,0.0,82,0.00,,,0.00,WUHU21623XXSP,2013-04-27 14:23:00,
2013-04-27 07:28:00,49.3,43.6,30.12,SSW,202,0.0,0.0,81,0.00,,,0.00,WUHU21623XXSP,2013-04-27 14:28:00,
2013-04-27 07:33:00,49.5,43.5,30.12,SSW,202,0.0,0.0,80,0.00,,,0.00,WUHU21623XXSP,2013-04-27 14:33:00,
2013-04-27 07:38:00,49.6,43.7,30.12,SSW,202,0.0,0.0,80,0.00,,,0.00,WUHU21623XXSP,2013-04-27 14:38:00,
2013-04-27 07:43:00,49.8,43.9,30.12,SSW,202,0.0,0.0,80,0.00,,,0.00,WUHU21623XXSP,2013-04-27 14:43:00,
2013-04-27 07:48:00,49.8,43.5,30.12,SSW,202,0.0,0.0,79,0.00,,,0.00,WUHU21623XXSP,2013-04-27 14:48:00,
2013-04-27 07:53:00,50.0,43.4,30.11,SSW,202,0.0,0.0,78,0.00,,,0.00,WUHU21623XXSP,2013-04-27 14:53:00,
2013-04-27 07:58:00,50.2,43.6,30.11,SSW,202,0.0,0.0,78,0.00,,,0.00,WUHU21623XXSP,2013-04-27 14:58:00,
2013-04-27 08:03:00,50.2,43.2,30.12,SSW,202,0.0,0.0,77,0.00,,,0.00,WUHU21623XXSP,2013-04-27 15:03:00,
2013-04-27 08:08:00,50.4,43.4,30.12,SW,225,0.0,0.0,77,0.00,,,0.00,WUHU21623XXSP,2013-04-27 15:08:00,
2013-04-27 08:13:00,50.5,43.6,30.12,SW,225,0.0,0.0,77,0.00,,,0.00,WUHU21623XXSP,2013-04-27 15:13:00,
2013-04-27 08:18:00,50.7,43.8,30.12,SW,225,0.0,0.0,77,0.00,,,0.00,WUHU21623XXSP,2013-04-27 15:18:00,
2013-04-27 08:23:00,50.5,43.2,30.12,ENE,67,0.0,0.0,76,0.00,,,0.00,WUHU21623XXSP,2013-04-27 15:23:00,
2013-04-27 08:28:00,50.7,43.2,30.12,WNW,292,0.0,0.0,76,0.00,,,0.00,WUHU21623XXSP,2013-04-27 15:28:00,
2013-04-27 08:33:00,50.7,43.4,30.12,WNW,292,0.0,0.0,76,0.00,,,0.00,WUHU21623XXSP,2013-04-27 15:33:00,
2013-04-27 08:38:00,50.7,43.1,30.12,WNW,292,0.0,0.0,75,0.00,,,0.00,WUHU21623XXSP,2013-04-27 15:38:00,
2013-04-27 08:43:00,50.9,43.3,30.12,ESE,112,0.0,0.0,75,0.00,,,0.00,WUHU21623XXSP,2013-04-27 15:43:00,
2013-04-27 08:48:00,50.9,43.3,30.13,SE,135,0.0,0.0,75,0.00,,,0.00,WUHU21623XXSP,2013-04-27 15:48:00,
2013-04-27 08:53:00,50.9,42.9,30.12,SE,135,0.0,0.0,74,0.00,,,0.00,WUHU21623XXSP,2013-04-27 15:53:00,
2013-04-27 08:58:00,51.1,43.1,30.12,South,180,0.0,0.0,74,0.00,,,0.00,WUHU21623XXSP,2013-04-27 15:58:00,
2013-04-27 09:03:00,51.3,42.7,30.13,SE,135,0.0,0.0,73,0.00,,,0.00,WUHU21623XXSP,2013-04-27 16:03:00,
2013-04-27 09:08:00,51.4,43.1,30.13,SE,135,0.0,0.0,73,0.00,,,0.00,WUHU21623XXSP,2013-04-27 16:08:00,
2013-04-27 09:13:00,51.4,42.8,30.13,SSE,157,0.0,0.0,72,0.00,,,0.00,WUHU21623XXSP,2013-04-27 16:13:00,
2013-04-27 09:18:00,51.6,42.9,30.13,SSE,157,0.0,0.0,72,0.00,,,0.00,WUHU21623XXSP,2013-04-27 16:18:00,
2013-04-27 09:23:00,51.6,42.3,30.13,SE,135,0.0,0.0,70,0.00,,,0.00,WUHU21623XXSP,2013-04-27 16:23:00,
2013-04-27 09:28:00,51.8,42.4,30.14,SE,135,0.0,0.0,70,0.00,,,0.00,WUHU21623XXSP,2013-04-27 16:28:00,
2013-04-27 09:33:00,52.0,42.9,30.14,SE,135,0.0,0.0,71,0.00,,,0.00,WUHU21623XXSP,2013-04-27 16:33:00,
2013-04-27 09:38:00,52.0,42.6,30.14,SE,135,0.0,0.0,70,0.00,,,0.00,WUHU21623XXSP,2013-04-27 16:38:00,
2013-04-27 09:43:00,52.2,42.8,30.14,NNE,22,0.0,0.0,70,0.00,,,0.00,WUHU21623XXSP,2013-04-27 16:43:00,
2013-04-27 09:48:00,52.2,42.4,30.14,SW,225,0.0,0.0,69,0.00,,,0.00,WUHU21623XXSP,2013-04-27 16:48:00,
2013-04-27 09:53:00,52.3,42.5,30.15,West,270,0.0,0.0,69,0.00,,,0.00,WUHU21623XXSP,2013-04-27 16:53:00,
2013-04-27 09:58:00,52.3,42.1,30.15,SSE,157,0.0,0.0,68,0.00,,,0.00,WUHU21623XXSP,2013-04-27 16:58:00,
2013-04-27 10:03:00,52.5,41.9,30.14,SSW,202,0.0,0.0,67,0.00,,,0.00,WUHU21623XXSP,2013-04-27 17:03:00,
2013-04-27 10:08:00,52.7,42.0,30.15,SSE,157,0.0,0.0,67,0.00,,,0.00,WUHU21623XXSP,2013-04-27 17:08:00,
2013-04-27 10:13:00,52.9,42.2,30.15,SE,135,0.0,0.0,67,0.00,,,0.00,WUHU21623XXSP,2013-04-27 17:13:00,
2013-04-27 10:18:00,52.9,42.2,30.15,North,0,0.0,0.0,67,0.00,,,0.00,WUHU21623XXSP,2013-04-27 17:18:00,
2013-04-27 10:23:00,52.9,42.2,30.15,West,270,0.0,0.0,67,0.00,,,0.00,WUHU21623XXSP,2013-04-27 17:23:00,
2013-04-27 10:28:00,53.1,42.0,30.16,SSW,202,0.0,0.0,66,0.00,,,0.00,WUHU21623XXSP,2013-04-27 17:28:00,
2013-04-27 10:33:00,53.2,42.5,30.16,SE,135,0.0,0.0,67,0.00,,,0.00,WUHU21623XXSP,2013-04-27 17:33:00,
2013-04-27 10:38:00,53.2,42.1,30.16,South,180,0.0,0.0,66,0.00,,,0.00,WUHU21623XXSP,2013-04-27 17:38:00,
2013-04-27 10:43:00,53.2,42.1,30.16,SE,135,0.0,0.0,66,0.00,,,0.00,WUHU21623XXSP,2013-04-27 17:43:00,
2013-04-27 10:48:00,53.2,41.7,30.16,SSE,157,0.0,0.0,65,0.00,,,0.00,WUHU21623XXSP,2013-04-27 17:48:00,
2013-04-27 10:53:00,53.2,42.1,30.16,NNE,22,0.0,0.0,66,0.00,,,0.00,WUHU21623XXSP,2013-04-27 17:53:00,
2013-04-27 10:58:00,53.2,41.7,30.16,South,180,0.0,0.0,65,0.00,,,0.00,WUHU21623XXSP,2013-04-27 17:58:00,
2013-04-27 11:03:00,53.2,42.1,30.16,South,180,0.0,0.0,66,0.00,,,0.00,WUHU21623XXSP,2013-04-27 18:03:00,
2013-04-27 11:08:00,53.2,42.5,30.16,South,180,0.0,0.0,67,0.00,,,0.00,WUHU21623XXSP,2013-04-27 18:08:00,
2013-04-27 11:13:00,53.2,42.5,30.16,WSW,247,0.0,0.0,67,0.00,,,0.00,WUHU21623XXSP,2013-04-27 18:13:00,
2013-04-27 11:18:00,53.2,41.7,30.16,SSE,157,0.0,0.0,65,0.00,,,0.00,WUHU21623XXSP,2013-04-27 18:18:00,
2013-04-27 11:23:00,53.4,41.9,30.16,SSE,157,0.0,0.0,65,0.00,,,0.00,WUHU21623XXSP,2013-04-27 18:23:00,
2013-04-27 11:28:00,53.6,41.9,30.16,SE,135,0.0,0.0,65,0.00,,,0.00,WUHU21623XXSP,2013-04-27 18:28:00,
2013-04-27 11:33:00,53.8,41.8,30.17,SW,225,0.0,0.0,64,0.00,,,0.00,WUHU21623XXSP,2013-04-27 18:33:00,
2013-04-27 11:38:00,53.8,42.2,30.17,North,0,0.0,0.0,65,0.00,,,0.00,WUHU21623XXSP,2013-04-27 18:38:00,
2013-04-27 11:43:00,54.1,42.2,30.17,ENE,67,0.0,0.0,64,0.00,,,0.00,WUHU21623XXSP,2013-04-27 18:43:00,
2013-04-27 11:48:00,54.3,42.4,30.17,South,180,0.0,0.0,64,0.00,,,0.00,WUHU21623XXSP,2013-04-27 18:48:00,
2013-04-27 11:53:00,54.3,42.0,30.16,SW,225,0.0,0.0,63,0.00,,,0.00,WUHU21623XXSP,2013-04-27 18:53:00,
2013-04-27 11:58:00,54.5,42.1,30.17,South,180,0.0,0.0,63,0.00,,,0.00,WUHU21623XXSP,2013-04-27 18:58:00,
2013-04-27 12:03:00,54.7,42.7,30.17,WSW,247,0.0,0.0,64,0.00,,,0.00,WUHU21623XXSP,2013-04-27 19:03:00,
2013-04-27 12:08:00,54.9,42.5,30.18,SE,135,0.0,0.0,63,0.00,,,0.00,WUHU21623XXSP,2013-04-27 19:08:00,
2013-04-27 12:13:00,55.0,42.6,30.18,South,180,0.0,0.0,63,0.00,,,0.00,WUHU21623XXSP,2013-04-27 19:13:00,
2013-04-27 12:18:00,55.2,43.2,30.18,West,270,0.0,0.0,64,0.00,,,0.00,WUHU21623XXSP,2013-04-27 19:18:00,
2013-04-27 12:23:00,55.2,42.8,30.18,SW,225,0.0,0.0,63,0.00,,,0.00,WUHU21623XXSP,2013-04-27 19:23:00,
2013-04-27 12:28:00,55.2,42.4,30.17,WSW,247,0.0,0.0,62,0.00,,,0.00,WUHU21623XXSP,2013-04-27 19:28:00,
2013-04-27 12:33:00,55.2,42.8,30.17,SSW,202,0.0,0.0,63,0.00,,,0.00,WUHU21623XXSP,2013-04-27 19:33:00,
2013-04-27 12:38:00,55.2,42.8,30.17,SSW,202,0.0,0.0,64,0.00,,,0.00,WUHU21623XXSP,2013-04-27 19:38:00,
2013-04-27 12:43:00,55.0,43.0,30.18,SW,225,0.0,0.0,64,0.00,,,0.00,WUHU21623XXSP,2013-04-27 19:43:00,
2013-04-27 12:48:00,54.7,42.7,30.18,SE,135,0.0,0.0,64,0.00,,,0.00,WUHU21623XXSP,2013-04-27 19:48:00,
2013-04-27 12:53:00,54.7,43.1,30.17,SSW,202,0.0,0.0,65,0.00,,,0.00,WUHU21623XXSP,2013-04-27 19:53:00,
2013-04-27 12:58:00,54.9,42.9,30.17,West,270,0.0,0.0,64,0.00,,,0.00,WUHU21623XXSP,2013-04-27 19:58:00,
2013-04-27 13:03:00,55.0,42.9,30.17,West,270,0.0,0.0,64,0.00,,,0.00,WUHU21623XXSP,2013-04-27 20:03:00,
2013-04-27 13:08:00,55.0,43.0,30.17,NE,45,0.0,0.0,64,0.00,,,0.00,WUHU21623XXSP,2013-04-27 20:08:00,
2013-04-27 13:13:00,54.9,42.9,30.17,SSE,157,0.0,0.0,64,0.00,,,0.00,WUHU21623XXSP,2013-04-27 20:13:00,
2013-04-27 13:18:00,54.9,42.9,30.17,SE,135,0.0,0.0,64,0.00,,,0.00,WUHU21623XXSP,2013-04-27 20:18:00,
2013-04-27 13:23:00,54.9,42.9,30.17,SE,135,0.0,0.0,64,0.00,,,0.00,WUHU21623XXSP,2013-04-27 20:23:00,
2013-04-27 13:28:00,54.7,42.7,30.17,SW,225,0.0,0.0,64,0.00,,,0.00,WUHU21623XXSP,2013-04-27 20:28:00,
2013-04-27 13:33:00,54.5,42.9,30.17,SW,225,0.0,0.0,64,0.00,,,0.00,WUHU21623XXSP,2013-04-27 20:33:00,
2013-04-27 13:38:00,54.5,42.9,30.17,NE,45,0.0,0.0,65,0.00,,,0.00,WUHU21623XXSP,2013-04-27 20:38:00,
2013-04-27 13:43:00,54.3,42.8,30.17,SSE,157,0.0,0.0,65,0.00,,,0.00,WUHU21623XXSP,2013-04-27 20:43:00,
2013-04-27 13:48:00,54.1,42.6,30.17,SE,135,0.0,0.0,65,0.00,,,0.00,WUHU21623XXSP,2013-04-27 20:48:00,
2013-04-27 13:53:00,54.0,42.4,30.17,SE,135,0.0,0.0,65,0.00,,,0.00,WUHU21623XXSP,2013-04-27 20:53:00,
2013-04-27 13:58:00,53.8,42.2,30.17,South,180,0.0,0.0,65,0.00,,,0.00,WUHU21623XXSP,2013-04-27 20:58:00,
2013-04-27 14:03:00,53.6,42.5,30.17,SSE,157,0.0,0.0,66,0.00,,,0.00,WUHU21623XXSP,2013-04-27 21:03:00,
2013-04-27 14:08:00,53.4,42.3,30.16,SE,135,0.0,0.0,66,0.00,,,0.00,WUHU21623XXSP,2013-04-27 21:08:00,
2013-04-27 14:13:00,53.4,42.7,30.16,SSE,157,0.0,0.0,67,0.00,,,0.00,WUHU21623XXSP,2013-04-27 21:13:00,
2013-04-27 14:18:00,53.4,43.1,30.16,SSE,157,0.0,0.0,68,0.00,,,0.00,WUHU21623XXSP,2013-04-27 21:18:00,
2013-04-27 14:23:00,53.4,43.1,30.17,ESE,112,0.0,0.0,68,0.00,,,0.00,WUHU21623XXSP,2013-04-27 21:23:00,
2013-04-27 14:28:00,53.4,43.1,30.17,SE,135,0.0,0.0,68,0.00,,,0.00,WUHU21623XXSP,2013-04-27 21:28:00,
2013-04-27 14:33:00,53.4,43.1,30.17,SE,135,0.0,0.0,68,0.00,,,0.00,WUHU21623XXSP,2013-04-27 21:33:00,
2013-04-27 14:38:00,53.4,43.1,30.17,SSW,202,0.0,0.0,68,0.00,,,0.00,WUHU21623XXSP,2013-04-27 21:38:00,
2013-04-27 14:43:00,53.2,42.9,30.16,NNW,337,0.0,0.0,68,0.00,,,0.00,WUHU21623XXSP,2013-04-27 21:43:00,
2013-04-27 14:48:00,53.2,42.9,30.16,ESE,112,0.0,0.0,68,0.00,,,0.00,WUHU21623XXSP,2013-04-27 21:48:00,
2013-04-27 14:53:00,53.1,43.2,30.16,ESE,112,0.0,0.0,69,0.00,,,0.00,WUHU21623XXSP,2013-04-27 21:53:00,
2013-04-27 14:58:00,53.1,43.2,30.17,SE,135,0.0,0.0,69,0.00,,,0.00,WUHU21623XXSP,2013-04-27 21:58:00,
2013-04-27 15:03:00,52.9,43.2,30.17,East,90,0.0,0.0,69,0.00,,,0.00,WUHU21623XXSP,2013-04-27 22:03:00,
2013-04-27 15:08:00,52.9,43.0,30.16,SSE,157,0.0,0.0,69,0.00,,,0.00,WUHU21623XXSP,2013-04-27 22:08:00,
2013-04-27 15:13:00,52.9,43.0,30.16,ESE,112,0.0,0.0,69,0.00,,,0.00,WUHU21623XXSP,2013-04-27 22:13:00,
2013-04-27 15:18:00,52.9,43.0,30.16,SE,135,0.0,0.0,69,0.00,,,0.00,WUHU21623XXSP,2013-04-27 22:18:00,
2013-04-27 15:23:00,52.9,43.0,30.16,ENE,67,0.0,0.0,69,0.00,,,0.00,WUHU21623XXSP,2013-04-27 22:23:00,
2013-04-27 15:28:00,52.7,43.3,30.16,SE,135,0.0,0.0,70,0.00,,,0.00,WUHU21623XXSP,2013-04-27 22:28:00,
2013-04-27 15:33:00,52.5,43.1,30.15,SE,135,0.0,0.0,70,0.00,,,0.00,WUHU21623XXSP,2013-04-27 22:33:00,
2013-04-27 15:38:00,52.5,43.1,30.15,SSE,157,0.0,0.0,70,0.00,,,0.00,WUHU21623XXSP,2013-04-27 22:38:00,
2013-04-27 15:43:00,52.5,43.1,30.16,SSE,157,0.0,0.0,70,0.00,,,0.00,WUHU21623XXSP,2013-04-27 22:43:00,
2013-04-27 15:48:00,52.5,43.1,30.16,SSW,202,0.0,0.0,70,0.00,,,0.00,WUHU21623XXSP,2013-04-27 22:48:00,
2013-04-27 15:53:00,52.5,43.4,30.15,SSW,202,0.0,0.0,71,0.00,,,0.00,WUHU21623XXSP,2013-04-27 22:53:00,
2013-04-27 15:58:00,52.3,43.3,30.16,West,270,0.0,0.0,71,0.00,,,0.00,WUHU21623XXSP,2013-04-27 22:58:00,
2013-04-27 16:03:00,52.3,43.6,30.15,ESE,112,0.0,0.0,72,0.00,,,0.00,WUHU21623XXSP,2013-04-27 23:03:00,
2013-04-27 16:08:00,52.3,43.6,30.15,ESE,112,0.0,0.0,72,0.00,,,0.00,WUHU21623XXSP,2013-04-27 23:08:00,
2013-04-27 16:13:00,52.3,44.0,30.14,SE,135,0.0,0.0,73,0.00,,,0.00,WUHU21623XXSP,2013-04-27 23:13:00,
2013-04-27 16:18:00,52.3,44.0,30.15,ESE,112,0.0,0.0,73,0.00,,,0.00,WUHU21623XXSP,2013-04-27 23:18:00,
2013-04-27 16:23:00,52.3,44.0,30.15,ESE,112,0.0,0.0,73,0.00,,,0.00,WUHU21623XXSP,2013-04-27 23:23:00,
2013-04-27 16:28:00,52.2,44.1,30.14,ENE,67,0.0,0.0,74,0.00,,,0.00,WUHU21623XXSP,2013-04-27 23:28:00,
2013-04-27 16:33:00,52.2,43.8,30.15,SE,135,0.0,0.0,73,0.00,,,0.00,WUHU21623XXSP,2013-04-27 23:33:00,
2013-04-27 16:38:00,52.3,44.0,30.15,SE,135,0.0,0.0,73,0.00,,,0.00,WUHU21623XXSP,2013-04-27 23:38:00,
2013-04-27 16:43:00,52.2,44.1,30.14,SE,135,0.0,0.0,74,0.00,,,0.00,WUHU21623XXSP,2013-04-27 23:43:00,
2013-04-27 16:48:00,52.2,44.1,30.14,SE,135,0.0,0.0,74,0.00,,,0.00,WUHU21623XXSP,2013-04-27 23:48:00,
2013-04-27 16:53:00,52.2,44.5,30.14,SE,135,0.0,0.0,75,0.00,,,0.00,WUHU21623XXSP,2013-04-27 23:53:00,
2013-04-27 16:58:00,52.2,44.5,30.14,ENE,67,0.0,0.0,75,0.00,,,0.00,WUHU21623XXSP,2013-04-27 23:58:00,
2013-04-27 17:03:00,52.0,44.3,30.14,SE,135,0.0,0.0,75,0.00,,,0.00,WUHU21623XXSP,2013-04-28 00:03:00,
2013-04-27 17:08:00,52.0,44.7,30.14,SE,135,0.0,0.0,76,0.00,,,0.00,WUHU21623XXSP,2013-04-28 00:08:00,
2013-04-27 17:13:00,52.0,45.0,30.14,SE,135,0.0,0.0,77,0.00,,,0.00,WUHU21623XXSP,2013-04-28 00:13:00,
2013-04-27 17:18:00,51.8,44.8,30.14,SE,135,0.0,0.0,77,0.00,,,0.00,WUHU21623XXSP,2013-04-28 00:18:00,
2013-04-27 17:23:00,51.8,44.7,30.14,NNE,22,0.0,0.0,77,0.00,,,0.00,WUHU21623XXSP,2013-04-28 00:23:00,
2013-04-27 17:28:00,51.6,44.7,30.14,ESE,112,0.0,0.0,77,0.00,,,0.00,WUHU21623XXSP,2013-04-28 00:28:00,
2013-04-27 17:33:00,51.6,45.0,30.14,SE,135,0.0,0.0,78,0.00,,,0.00,WUHU21623XXSP,2013-04-28 00:33:00,
2013-04-27 17:38:00,51.6,45.0,30.14,SE,135,0.0,0.0,78,0.00,,,0.00,WUHU21623XXSP,2013-04-28 00:38:00,
2013-04-27 17:43:00,51.6,45.0,30.14,ENE,67,0.0,0.0,78,0.00,,,0.00,WUHU21623XXSP,2013-04-28 00:43:00,
2013-04-27 17:48:00,51.6,45.3,30.14,East,90,0.0,0.0,79,0.00,,,0.00,WUHU21623XXSP,2013-04-28 00:48:00,
2013-04-27 17:53:00,51.6,45.3,30.14,ENE,67,0.0,0.0,79,0.00,,,0.00,WUHU21623XXSP,2013-04-28 00:53:00,
2013-04-27 17:58:00,51.6,45.3,30.14,SE,135,0.0,0.0,79,0.00,,,0.00,WUHU21623XXSP,2013-04-28 00:58:00,
2013-04-27 18:03:00,51.6,45.3,30.14,East,90,0.0,0.0,79,0.00,,,0.00,WUHU21623XXSP,2013-04-28 01:03:00,
2013-04-27 18:08:00,51.6,45.3,30.14,East,90,0.0,0.0,79,0.00,,,0.00,WUHU21623XXSP,2013-04-28 01:08:00,
2013-04-27 18:13:00,51.6,45.7,30.13,ESE,112,0.0,0.0,80,0.00,,,0.00,WUHU21623XXSP,2013-04-28 01:13:00,
2013-04-27 18:18:00,51.4,45.5,30.14,ESE,112,0.0,0.0,81,0.00,,,0.00,WUHU21623XXSP,2013-04-28 01:18:00,
2013-04-27 18:23:00,51.4,45.8,30.13,ESE,112,0.0,0.0,81,0.00,,,0.00,WUHU21623XXSP,2013-04-28 01:23:00,
2013-04-27 18:28:00,51.4,45.8,30.13,East,90,0.0,0.0,81,0.00,,,0.00,WUHU21623XXSP,2013-04-28 01:28:00,
2013-04-27 18:33:00,51.3,45.6,30.14,East,90,0.0,0.0,81,0.00,,,0.00,WUHU21623XXSP,2013-04-28 01:33:00,
2013-04-27 18:38:00,51.3,45.9,30.14,East,90,0.0,0.0,82,0.00,,,0.00,WUHU21623XXSP,2013-04-28 01:38:00,
2013-04-27 18:43:00,51.1,45.8,30.14,ENE,67,0.0,0.0,82,0.00,,,0.00,WUHU21623XXSP,2013-04-28 01:43:00,
2013-04-27 18:48:00,51.1,45.8,30.14,ENE,67,0.0,0.0,82,0.00,,,0.00,WUHU21623XXSP,2013-04-28 01:48:00,
2013-04-27 18:53:00,50.9,45.9,30.14,ENE,67,0.0,0.0,83,0.00,,,0.00,WUHU21623XXSP,2013-04-28 01:53:00,
2013-04-27 18:58:00,50.7,46.2,30.13,ENE,67,0.0,0.0,84,0.00,,,0.00,WUHU21623XXSP,2013-04-28 01:58:00,
2013-04-27 19:03:00,50.7,46.0,30.13,ENE,67,0.0,0.0,84,0.00,,,0.00,WUHU21623XXSP,2013-04-28 02:03:00,
2013-04-27 19:08:00,50.5,46.1,30.13,ENE,67,0.0,0.0,85,0.00,,,0.00,WUHU21623XXSP,2013-04-28 02:08:00,
2013-04-27 19:13:00,50.5,46.1,30.13,ENE,67,0.0,0.0,85,0.00,,,0.00,WUHU21623XXSP,2013-04-28 02:13:00,
2013-04-27 19:18:00,50.5,46.1,30.13,ENE,67,0.0,0.0,85,0.00,,,0.00,WUHU21623XXSP,2013-04-28 02:18:00,
2013-04-27 19:23:00,50.4,46.0,30.13,ENE,67,0.0,0.0,85,0.00,,,0.00,WUHU21623XXSP,2013-04-28 02:23:00,
2013-04-27 19:28:00,50.4,46.3,30.13,ESE,112,0.0,0.0,86,0.00,,,0.00,WUHU21623XXSP,2013-04-28 02:28:00,
2013-04-27 19:33:00,50.4,46.3,30.13,ESE,112,0.0,0.0,86,0.00,,,0.00,WUHU21623XXSP,2013-04-28 02:33:00,
2013-04-27 19:38:00,50.4,46.3,30.13,ESE,112,0.0,0.0,86,0.00,,,0.00,WUHU21623XXSP,2013-04-28 02:38:00,
2013-04-27 19:43:00,50.2,46.1,30.13,ESE,112,0.0,0.0,86,0.00,,,0.00,WUHU21623XXSP,2013-04-28 02:43:00,
2013-04-27 19:48:00,50.2,46.4,30.13,ESE,112,0.0,0.0,87,0.00,,,0.00,WUHU21623XXSP,2013-04-28 02:48:00,
2013-04-27 19:53:00,50.2,46.4,30.13,ESE,112,0.0,0.0,87,0.00,,,0.00,WUHU21623XXSP,2013-04-28 02:53:00,
2013-04-27 19:58:00,50.2,46.4,30.13,ESE,112,0.0,0.0,87,0.00,,,0.00,WUHU21623XXSP,2013-04-28 02:58:00,
2013-04-27 20:03:00,50.2,46.7,30.13,ESE,112,0.0,0.0,88,0.00,,,0.00,WUHU21623XXSP,2013-04-28 03:03:00,
2013-04-27 20:08:00,50.2,46.7,30.13,ESE,112,0.0,0.0,88,0.00,,,0.00,WUHU21623XXSP,2013-04-28 03:08:00,
2013-04-27 20:13:00,50.2,46.7,30.13,ESE,112,0.0,0.0,88,0.00,,,0.00,WUHU21623XXSP,2013-04-28 03:13:00,
2013-04-27 20:18:00,50.2,46.7,30.13,ESE,112,0.0,0.0,88,0.00,,,0.00,WUHU21623XXSP,2013-04-28 03:18:00,
2013-04-27 20:23:00,50.2,46.7,30.13,SE,135,0.0,0.0,88,0.00,,,0.00,WUHU21623XXSP,2013-04-28 03:23:00,
2013-04-27 20:28:00,50.2,46.7,30.13,SE,135,0.0,0.0,88,0.00,,,0.00,WUHU21623XXSP,2013-04-28 03:28:00,
2013-04-27 20:33:00,50.0,46.7,30.13,SE,135,0.0,0.0,88,0.00,,,0.00,WUHU21623XXSP,2013-04-28 03:33:00,
2013-04-27 20:38:00,49.8,46.3,30.13,SE,135,0.0,0.0,89,0.00,,,0.00,WUHU21623XXSP,2013-04-28 03:38:00,
2013-04-27 20:43:00,49.8,46.6,30.13,South,180,0.0,0.0,89,0.00,,,0.00,WUHU21623XXSP,2013-04-28 03:43:00,
2013-04-27 20:48:00,49.8,46.6,30.14,South,180,0.0,0.0,89,0.00,,,0.00,WUHU21623XXSP,2013-04-28 03:48:00,
2013-04-27 20:53:00,49.8,46.6,30.13,South,180,0.0,0.0,89,0.00,,,0.00,WUHU21623XXSP,2013-04-28 03:53:00,
2013-04-27 20:58:00,49.8,46.6,30.13,SE,135,0.0,0.0,89,0.00,,,0.00,WUHU21623XXSP,2013-04-28 03:58:00,
2013-04-27 21:01:00,49.8,46.6,30.13,SE,135,0.0,0.0,89,0.00,,,0.00,WUHU21623XXSP,2013-04-28 04:01:00,
2013-04-27 21:06:00,49.8,46.6,30.14,SE,135,0.0,0.0,89,0.00,,,0.00,WUHU21623XXSP,2013-04-28 04:06:00,
2013-04-27 21:11:00,49.8,46.6,30.14,SE,135,0.0,0.0,89,0.00,,,0.00,WUHU21623XXSP,2013-04-28 04:11:00,
2013-04-27 21:16:00,49.8,46.6,30.14,SE,135,0.0,0.0,89,0.00,,,0.00,WUHU21623XXSP,2013-04-28 04:16:00,
2013-04-27 21:21:00,49.8,46.6,30.14,SE,135,0.0,0.0,89,0.00,,,0.00,WUHU21623XXSP,2013-04-28 04:21:00,
2013-04-27 21:26:00,49.8,46.5,30.14,SE,135,0.0,0.0,89,0.00,,,0.00,WUHU21623XXSP,2013-04-28 04:26:00,
2013-04-27 21:31:00,49.6,46.8,30.15,SE,135,0.0,0.0,90,0.00,,,0.00,WUHU21623XXSP,2013-04-28 04:31:00,
2013-04-27 21:36:00,49.6,46.8,30.15,SE,135,0.0,0.0,90,0.00,,,0.00,WUHU21623XXSP,2013-04-28 04:36:00,
2013-04-27 21:41:00,49.6,46.8,30.15,SE,135,0.0,0.0,90,0.00,,,0.00,WUHU21623XXSP,2013-04-28 04:41:00,
2013-04-27 21:46:00,49.6,46.8,30.15,SE,135,0.0,0.0,90,0.00,,,0.00,WUHU21623XXSP,2013-04-28 04:46:00,
2013-04-27 21:51:00,49.6,46.8,30.15,South,180,0.0,0.0,90,0.00,,,0.00,WUHU21623XXSP,2013-04-28 04:51:00,
2013-04-27 21:56:00,49.6,46.8,30.15,WSW,247,0.0,0.0,90,0.00,,,0.00,WUHU21623XXSP,2013-04-28 04:56:00,
2013-04-27 22:01:00,49.6,46.8,30.15,WSW,247,0.0,0.0,90,0.00,,,0.00,WUHU21623XXSP,2013-04-28 05:01:00,
2013-04-27 22:06:00,49.6,46.8,30.15,South,180,0.0,0.0,90,0.00,,,0.00,WUHU21623XXSP,2013-04-28 05:06:00,
2013-04-27 22:11:00,49.6,46.8,30.15,South,180,0.0,0.0,90,0.00,,,0.00,WUHU21623XXSP,2013-04-28 05:11:00,
2013-04-27 22:16:00,49.6,46.8,30.15,WSW,247,0.0,0.0,90,0.00,,,0.00,WUHU21623XXSP,2013-04-28 05:16:00,
2013-04-27 22:21:00,49.3,46.5,30.15,WSW,247,0.0,0.0,90,0.00,,,0.00,WUHU21623XXSP,2013-04-28 05:21:00,
2013-04-27 22:26:00,49.3,46.5,30.15,WSW,247,0.0,0.0,90,0.00,,,0.00,WUHU21623XXSP,2013-04-28 05:26:00,
2013-04-27 22:31:00,49.3,46.7,30.15,WSW,247,0.0,0.0,91,0.00,,,0.00,WUHU21623XXSP,2013-04-28 05:31:00,
2013-04-27 22:36:00,49.1,46.6,30.15,WSW,247,0.0,0.0,91,0.00,,,0.00,WUHU21623XXSP,2013-04-28 05:36:00,
2013-04-27 22:41:00,49.1,46.6,30.15,WSW,247,0.0,0.0,91,0.00,,,0.00,WUHU21623XXSP,2013-04-28 05:41:00,
2013-04-27 22:46:00,49.1,46.6,30.15,WSW,247,0.0,0.0,91,0.00,,,0.00,WUHU21623XXSP,2013-04-28 05:46:00,
2013-04-27 22:51:00,49.1,46.6,30.15,WSW,247,0.0,0.0,91,0.00,,,0.00,WUHU21623XXSP,2013-04-28 05:51:00,
2013-04-27 22:56:00,48.9,46.4,30.16,WNW,292,0.0,0.0,91,0.00,,,0.00,WUHU21623XXSP,2013-04-28 05:56:00,
2013-04-27 23:01:00,48.9,46.4,30.16,WNW,292,0.0,0.0,91,0.00,,,0.00,WUHU21623XXSP,2013-04-28 06:01:00,
2013-04-27 23:06:00,48.9,46.4,30.16,WNW,292,0.0,0.0,91,0.00,,,0.00,WUHU21623XXSP,2013-04-28 06:06:00,
2013-04-27 23:11:00,48.9,46.4,30.16,WNW,292,0.0,0.0,91,0.00,,,0.00,WUHU21623XXSP,2013-04-28 06:11:00,
2013-04-27 23:16:00,48.9,46.4,30.16,WNW,292,0.0,0.0,91,0.00,,,0.00,WUHU21623XXSP,2013-04-28 06:16:00,
2013-04-27 23:21:00,48.9,46.4,30.16,WNW,292,0.0,0.0,91,0.00,,,0.00,WUHU21623XXSP,2013-04-28 06:21:00,
2013-04-27 23:26:00,48.9,46.4,30.16,WNW,292,0.0,0.0,91,0.00,,,0.00,WUHU21623XXSP,2013-04-28 06:26:00,
2013-04-27 23:31:00,48.9,46.4,30.15,WNW,292,0.0,0.0,91,0.00,,,0.00,WUHU21623XXSP,2013-04-28 06:31:00,
2013-04-27 23:36:00,48.9,46.4,30.16,WNW,292,0.0,0.0,91,0.00,,,0.00,WUHU21623XXSP,2013-04-28 06:36:00,
2013-04-27 23:41:00,48.9,46.4,30.16,WNW,292,0.0,0.0,91,0.00,,,0.00,WUHU21623XXSP,2013-04-28 06:41:00,
2013-04-27 23:46:00,48.9,46.4,30.16,WNW,292,0.0,0.0,91,0.00,,,0.00,WUHU21623XXSP,2013-04-28 06:46:00,
2013-04-27 23:51:00,48.9,46.4,30.16,WNW,292,0.0,0.0,91,0.00,,,0.00,WUHU21623XXSP,2013-04-28 06:51:00,
2013-04-27 23:56:00,48.7,46.3,30.16,WNW,292,0.0,0.0,91,0.00,,,0.00,WUHU21623XXSP,2013-04-28 06:56:00,